Flag for Brazil Weather past 2 weeks in Cuiabá, Mato Grosso, Brazil

Now
77 °F

Partly cloudy.


Feels Like: 78 °F
Forecast: 74 / 86 °F
Wind: 12 mph from Southwest

Location: Cuiaba Aeroporto

Current Time: Mar 1, 2015 at 9:05:49 PM

Latest Report: Mar 1, 2015 at 8:00 PM


Visibility: N/A

Pressure: 29.89 "Hg

Humidity: 83%

Dew point: 72 °F

Location of CuiabáLocation

Historic Weather in Cuiabá — Graph

°F

Cuiabá temperature yesterday

Maximum temperature yesterday: 88 °F (at 12:00 PM)
Minimum temperature yesterday: 75 °F (at 1:00 AM)
Average temperature yesterday: 79 °F

Past Weeks' High & Low Weather Summary

 TemperatureHumidityPressure
High91 °F (Feb 16, 2:00 PM)100% (Feb 18, 1:00 AM)30.01 "Hg (Feb 18, 1:00 AM)
Low68 °F (Feb 23, 1:00 PM)46% (Feb 16, 3:00 PM)29.71 "Hg (Feb 18, 5:00 PM)
Average79 °F81%29.89 "Hg
* Reported Feb 14 9:00 PM — Mar 1 8:00 PM, Cuiabá, Weather by CustomWeather, © 2015

Note: Actual official high and low records may vary slightly from our data, if they occured in-between our weather recording intervals... More about our weather records

Advertising

Cuiabá weather history for previous 24 hours

 ConditionsComfort  
Time TempWeatherWind HumidityBarometerVisibility
8:00 PM
Sun, Mar 1
77 °FPartly cloudy.12 mph83%29.89 "HgN/A
7:00 PM81 °FThunderstorms. Partly cloudy.7 mph74%29.83 "HgN/A
6:00 PM84 °FThunderstorms. Broken clouds.7 mph74%29.80 "HgN/A
5:00 PM88 °FBroken clouds.6 mph59%29.77 "HgN/A
4:00 PM90 °FScattered clouds.5 mph52%29.77 "HgN/A
3:00 PM90 °FScattered clouds.8 mph55%29.80 "HgN/A
2:00 PM88 °FScattered clouds.3 mph62%29.80 "HgN/A
1:00 PM90 °FScattered clouds.No wind59%29.86 "HgN/A
12:00 PM86 °FScattered clouds.5 mph66%29.92 "HgN/A
11:00 AM81 °FPartly sunny.5 mph84%29.95 "HgN/A
10:00 AM75 °FBroken clouds.3 mph94%29.95 "HgN/A
9:00 AM75 °FMixture of precip. Mostly cloudy.6 mph89%29.98 "Hg6 mi
8:00 AM75 °FMixture of precip. Broken clouds.2 mph89%N/A6 mi
7:00 AM75 °FPartly sunny.2 mph89%29.92 "HgN/A
6:00 AM73 °FSunny.3 mph94%29.89 "Hg10 mi
5:00 AM73 °FClear.5 mph94%29.89 "Hg10 mi
4:00 AM75 °FClear.No wind83%29.86 "Hg10 mi
3:00 AM73 °FClear.1 mph89%29.89 "Hg10 mi
2:00 AM75 °FClear.3 mph89%29.89 "Hg10 mi
1:00 AM75 °FClear.5 mph89%29.92 "Hg10 mi
12:00 AM75 °FClear.5 mph89%29.92 "Hg10 mi
11:00 PM
Sat, Feb 28
75 °FClear.3 mph89%29.89 "Hg10 mi
10:00 PM75 °FClear.3 mph89%29.95 "Hg10 mi
9:00 PM75 °FClear.2 mph89%29.92 "Hg10 mi
Weather by CustomWeather, © 2015

See weather overviewHow to use our weather pages